EUS17EF EIDW-EGPH

Flight info

Callsign EUS17EF
Flight time 0h 39m
Altitude 25000
Route ROTEV3J ROTEV P600 TUNSO
Aircraft B738/M-SDE2E3FGHIRWXY/LB1

Departure

Time 2026-04-26 19:31
Airport Dublin Airport (EIDW)

Arrival

Time 2026-04-26 20:11
Airport Edinburgh Airport (EGPH)
Time Latitude Longitude Altitude Speed Heading
2026-04-26 18:59 53.42674 -6.24637 252 ft 0 kts 156°
2026-04-26 19:17 53.42677 -6.24640 251 ft 2 kts 157°
2026-04-26 19:17 53.42688 -6.24648 252 ft 2 kts 156°
2026-04-26 19:17 53.42699 -6.24656 252 ft 2 kts 156°
2026-04-26 19:18 53.42711 -6.24667 252 ft 2 kts 134°
2026-04-26 19:18 53.42712 -6.24668 252 ft 0 kts 132°
2026-04-26 19:18 53.42719 -6.24683 251 ft 2 kts 114°
2026-04-26 19:18 53.42721 -6.24696 251 ft 2 kts 100°
2026-04-26 19:19 53.42722 -6.24718 251 ft 2 kts 79°
2026-04-26 19:19 53.42717 -6.24737 252 ft 2 kts 61°
2026-04-26 19:19 53.42712 -6.24753 252 ft 2 kts 66°
2026-04-26 19:19 53.42708 -6.24769 252 ft 2 kts 61°
2026-04-26 19:20 53.42702 -6.24787 252 ft 2 kts 58°
2026-04-26 19:20 53.42697 -6.24798 251 ft 2 kts 56°
2026-04-26 19:20 53.42689 -6.24818 251 ft 2 kts 52°
2026-04-26 19:20 53.42683 -6.24831 251 ft 2 kts 50°
2026-04-26 19:21 53.42676 -6.24845 252 ft 2 kts 47°
2026-04-26 19:21 53.42668 -6.24858 251 ft 2 kts 46°
2026-04-26 19:21 53.42660 -6.24873 252 ft 2 kts 47°
2026-04-26 19:21 53.42650 -6.24887 251 ft 2 kts 17°
2026-04-26 19:22 53.42634 -6.24889 251 ft 2 kts 349°
2026-04-26 19:22 53.42619 -6.24879 252 ft 2 kts 338°
2026-04-26 19:22 53.42611 -6.24875 252 ft 0 kts 342°
2026-04-26 19:24 53.42616 -6.24877 251 ft 4 kts 341°
2026-04-26 19:24 53.42662 -6.24919 251 ft 10 kts 330°
2026-04-26 19:24 53.42787 -6.25071 251 ft 10 kts 303°
2026-04-26 19:25 53.42803 -6.25168 251 ft 7 kts 279°
2026-04-26 19:25 53.42812 -6.25233 251 ft 11 kts 292°
2026-04-26 19:25 53.42915 -6.25332 251 ft 10 kts 338°
2026-04-26 19:25 53.42999 -6.25391 251 ft 14 kts 336°
2026-04-26 19:26 53.43129 -6.25486 251 ft 16 kts 337°
2026-04-26 19:26 53.43237 -6.25566 251 ft 13 kts 336°
2026-04-26 19:26 53.43327 -6.25626 251 ft 12 kts 342°
2026-04-26 19:26 53.43399 -6.25608 251 ft 9 kts 61°
2026-04-26 19:27 53.43404 -6.25513 251 ft 7 kts 95°
2026-04-26 19:27 53.43399 -6.25429 251 ft 6 kts 94°
2026-04-26 19:27 53.43394 -6.25314 251 ft 18 kts 96°
2026-04-26 19:27 53.43378 -6.25037 251 ft 22 kts 95°
2026-04-26 19:28 53.43367 -6.24819 251 ft 9 kts 96°
2026-04-26 19:28 53.43365 -6.24774 251 ft 1 kts 96°
2026-04-26 19:28 53.43360 -6.24697 251 ft 16 kts 95°
2026-04-26 19:28 53.43405 -6.24558 251 ft 12 kts
2026-04-26 19:29 53.43504 -6.24547 251 ft 14 kts
2026-04-26 19:29 53.43532 -6.24641 251 ft 9 kts 269°
2026-04-26 19:29 53.43532 -6.24658 251 ft 1 kts 272°
2026-04-26 19:29 53.43533 -6.24676 251 ft 1 kts 272°
2026-04-26 19:30 53.43533 -6.24701 251 ft 2 kts 272°
2026-04-26 19:30 53.43534 -6.24730 251 ft 2 kts 273°
2026-04-26 19:30 53.43534 -6.24750 251 ft 0 kts 273°
2026-04-26 19:31 53.43551 -6.25051 252 ft 66 kts 274°
2026-04-26 19:31 53.43618 -6.26233 252 ft 134 kts 277°
2026-04-26 19:31 53.43699 -6.27993 804 ft 169 kts 270°
2026-04-26 19:31 53.43816 -6.30033 1858 ft 186 kts 285°
2026-04-26 19:32 53.44534 -6.31735 3045 ft 192 kts 321°
2026-04-26 19:32 53.45707 -6.32789 4112 ft 200 kts 334°
2026-04-26 19:32 53.47041 -6.33688 4913 ft 211 kts 338°
2026-04-26 19:32 53.48336 -6.34102 5137 ft 208 kts 357°
2026-04-26 19:33 53.49789 -6.34203 5379 ft 210 kts 352°
2026-04-26 19:33 53.51315 -6.34564 5695 ft 234 kts 349°
2026-04-26 19:33 53.52953 -6.34859 6543 ft 245 kts
2026-04-26 19:33 53.54677 -6.34462 7312 ft 263 kts
2026-04-26 19:34 53.56504 -6.33946 7932 ft 284 kts
2026-04-26 19:34 53.58454 -6.33435 8825 ft 294 kts
2026-04-26 19:34 53.60496 -6.32906 9262 ft 304 kts
2026-04-26 19:34 53.62574 -6.32370 9264 ft 302 kts
2026-04-26 19:35 53.64571 -6.31855 9263 ft 300 kts
2026-04-26 19:35 53.66660 -6.31286 9263 ft 301 kts
2026-04-26 19:35 53.68730 -6.30422 9855 ft 317 kts 14°
2026-04-26 19:35 53.70806 -6.29444 11038 ft 315 kts 13°
2026-04-26 19:36 53.72827 -6.28526 11469 ft 337 kts 13°
2026-04-26 19:36 53.74228 -6.27898 11824 ft 348 kts 13°
2026-04-26 19:36 53.77304 -6.26483 13389 ft 345 kts 13°
2026-04-26 19:36 53.79514 -6.25389 14799 ft 335 kts 13°
2026-04-26 19:37 53.81719 -6.24233 15741 ft 343 kts 13°
2026-04-26 19:37 53.83947 -6.22901 16076 ft 370 kts 20°
2026-04-26 19:37 53.86279 -6.20962 16222 ft 380 kts 24°
2026-04-26 19:37 53.88643 -6.18883 16374 ft 381 kts 24°
2026-04-26 19:38 53.90673 -6.17137 16503 ft 382 kts 24°
2026-04-26 19:38 53.92664 -6.15437 16629 ft 384 kts 23°
2026-04-26 19:38 53.94881 -6.13544 16769 ft 384 kts 23°
2026-04-26 19:38 53.97080 -6.11667 16907 ft 385 kts 23°
2026-04-26 19:39 53.99410 -6.09680 17053 ft 387 kts 23°
2026-04-26 19:39 54.01782 -6.07656 17232 ft 387 kts 23°
2026-04-26 19:39 54.04070 -6.05723 17546 ft 389 kts 22°
2026-04-26 19:39 54.06406 -6.03823 17858 ft 392 kts 21°
2026-04-26 19:40 54.08883 -6.01819 18184 ft 395 kts 21°
2026-04-26 19:40 54.11216 -5.99921 18490 ft 398 kts 21°
2026-04-26 19:40 54.13657 -5.97929 18808 ft 400 kts 21°
2026-04-26 19:40 54.16162 -5.95884 19132 ft 403 kts 21°
2026-04-26 19:41 54.18613 -5.93879 19447 ft 406 kts 21°
2026-04-26 19:41 54.21147 -5.91811 19771 ft 408 kts 21°
2026-04-26 19:41 54.23674 -5.89748 20091 ft 411 kts 21°
2026-04-26 19:41 54.25393 -5.88340 20308 ft 413 kts 20°
2026-04-26 19:42 54.28758 -5.85580 20729 ft 417 kts 20°
2026-04-26 19:42 54.31366 -5.83436 21053 ft 420 kts 20°
2026-04-26 19:42 54.33953 -5.81307 21373 ft 423 kts 20°
2026-04-26 19:42 54.36617 -5.79110 21700 ft 425 kts 20°
2026-04-26 19:43 54.39151 -5.77017 22009 ft 428 kts 20°
2026-04-26 19:43 54.41793 -5.74833 22472 ft 431 kts 20°
2026-04-26 19:43 54.44353 -5.72708 23497 ft 425 kts 19°
2026-04-26 19:43 54.46894 -5.70596 24608 ft 417 kts 19°
2026-04-26 19:44 54.49453 -5.68483 25263 ft 421 kts 18°
2026-04-26 19:44 54.52045 -5.66364 25299 ft 429 kts 18°
2026-04-26 19:44 54.54697 -5.64182 25294 ft 436 kts 18°
2026-04-26 19:44 54.57429 -5.61846 25293 ft 446 kts 24°
2026-04-26 19:45 54.60030 -5.58739 25295 ft 458 kts 34°
2026-04-26 19:45 54.62483 -5.55200 25297 ft 464 kts 36°
2026-04-26 19:45 54.64954 -5.51549 25292 ft 469 kts 36°
2026-04-26 19:45 54.67506 -5.47772 25290 ft 474 kts 37°
2026-04-26 19:46 54.69955 -5.44118 25290 ft 478 kts 37°
2026-04-26 19:46 54.72478 -5.40326 25290 ft 481 kts 37°
2026-04-26 19:46 54.74974 -5.36557 25289 ft 485 kts 37°
2026-04-26 19:46 54.77441 -5.32813 25289 ft 487 kts 38°
2026-04-26 19:47 54.79848 -5.29159 25289 ft 489 kts 38°
2026-04-26 19:47 54.81492 -5.26659 25290 ft 491 kts 38°
2026-04-26 19:47 54.84895 -5.21481 25290 ft 493 kts 38°
2026-04-26 19:47 54.87448 -5.17805 25288 ft 493 kts 33°
2026-04-26 19:48 54.90167 -5.14657 25076 ft 494 kts 25°
2026-04-26 19:48 54.93234 -5.11899 24601 ft 503 kts 21°
2026-04-26 19:48 54.96354 -5.09254 24134 ft 512 kts 22°
2026-04-26 19:48 54.99532 -5.06501 23637 ft 509 kts 23°
2026-04-26 19:49 55.02408 -5.03972 23114 ft 493 kts 24°
2026-04-26 19:49 55.05395 -5.01321 22564 ft 476 kts 25°
2026-04-26 19:49 55.08114 -4.98048 22004 ft 465 kts 40°
2026-04-26 19:49 55.10396 -4.94173 21456 ft 452 kts 45°
2026-04-26 19:50 55.12278 -4.90368 20943 ft 442 kts 49°
2026-04-26 19:50 55.14111 -4.86846 20374 ft 420 kts 40°
2026-04-26 19:50 55.16235 -4.83595 19792 ft 397 kts 36°
2026-04-26 19:50 55.18233 -4.80637 19209 ft 381 kts 37°
2026-04-26 19:51 55.20132 -4.77755 18667 ft 365 kts 37°
2026-04-26 19:51 55.21915 -4.75003 18173 ft 351 kts 38°
2026-04-26 19:51 55.23665 -4.72253 17706 ft 338 kts 38°
2026-04-26 19:51 55.25185 -4.69837 17268 ft 328 kts 38°
2026-04-26 19:52 55.26780 -4.67281 16787 ft 319 kts 39°
2026-04-26 19:52 55.28301 -4.64829 16315 ft 312 kts 39°
2026-04-26 19:52 55.29785 -4.62425 15908 ft 304 kts 39°
2026-04-26 19:52 55.31317 -4.59937 15486 ft 300 kts 39°
2026-04-26 19:53 55.32818 -4.57495 15067 ft 298 kts 39°
2026-04-26 19:53 55.34244 -4.55169 14666 ft 296 kts 39°
2026-04-26 19:53 55.35724 -4.52749 14246 ft 293 kts 39°
2026-04-26 19:53 55.37133 -4.50445 13842 ft 290 kts 39°
2026-04-26 19:54 55.38585 -4.48072 13444 ft 305 kts 40°
2026-04-26 19:54 55.40158 -4.45497 13019 ft 311 kts 40°
2026-04-26 19:54 55.41609 -4.43113 12625 ft 307 kts 40°
2026-04-26 19:54 55.43040 -4.40758 12231 ft 304 kts 40°
2026-04-26 19:55 55.44565 -4.38248 11806 ft 300 kts 40°
2026-04-26 19:55 55.46073 -4.35764 11382 ft 298 kts 40°
2026-04-26 19:55 55.47549 -4.33333 10965 ft 297 kts 41°
2026-04-26 19:55 55.49001 -4.30943 10553 ft 295 kts 41°
2026-04-26 19:56 55.50460 -4.28537 10135 ft 293 kts 41°
2026-04-26 19:56 55.51888 -4.26179 9724 ft 290 kts 41°
2026-04-26 19:56 55.53311 -4.23826 9337 ft 288 kts 41°
2026-04-26 19:56 55.54626 -4.21652 9063 ft 303 kts 41°
2026-04-26 19:57 55.55971 -4.19428 8782 ft 311 kts 41°
2026-04-26 19:57 55.57281 -4.17253 8510 ft 309 kts 41°
2026-04-26 19:57 55.58664 -4.14955 8221 ft 307 kts 41°
2026-04-26 19:57 55.60032 -4.12681 7934 ft 306 kts 41°
2026-04-26 19:58 55.61388 -4.10426 7645 ft 304 kts 41°
2026-04-26 19:58 55.62812 -4.08055 7343 ft 303 kts 41°
2026-04-26 19:58 55.64186 -4.05765 7050 ft 300 kts 41°
2026-04-26 19:58 55.65292 -4.03919 6812 ft 298 kts 41°
2026-04-26 19:59 55.66662 -4.01632 6515 ft 295 kts 41°
2026-04-26 19:59 55.68019 -3.99364 6216 ft 293 kts 41°
2026-04-26 19:59 55.71104 -3.94198 5529 ft 286 kts 41°
2026-04-26 20:00 55.72452 -3.91937 5223 ft 283 kts 41°
2026-04-26 20:00 55.73893 -3.89517 4887 ft 273 kts 41°
2026-04-26 20:00 55.75170 -3.87367 4567 ft 255 kts 41°
2026-04-26 20:00 55.76387 -3.85317 4304 ft 237 kts 41°
2026-04-26 20:01 55.77548 -3.83362 4299 ft 212 kts 41°
2026-04-26 20:01 55.78635 -3.81533 4274 ft 210 kts 41°
2026-04-26 20:01 55.79686 -3.79765 4264 ft 209 kts 41°
2026-04-26 20:01 55.80735 -3.77996 4265 ft 210 kts 41°
2026-04-26 20:02 55.80773 -3.77933 4265 ft 210 kts 41°
2026-04-26 20:04 55.81057 -3.77452 4265 ft 210 kts 41°
2026-04-26 20:04 55.81957 -3.75520 4257 ft 200 kts 57°
2026-04-26 20:05 55.82615 -3.73501 4286 ft 189 kts 57°
2026-04-26 20:05 55.83297 -3.71496 4303 ft 190 kts 56°
2026-04-26 20:05 55.83913 -3.69687 4225 ft 166 kts 56°
2026-04-26 20:05 55.84517 -3.67937 3980 ft 163 kts 56°
2026-04-26 20:06 55.85072 -3.66320 3698 ft 149 kts 56°
2026-04-26 20:06 55.85585 -3.64827 3527 ft 148 kts 56°
2026-04-26 20:06 55.86122 -3.63263 3322 ft 147 kts 56°
2026-04-26 20:06 55.86633 -3.61775 3129 ft 146 kts 56°
2026-04-26 20:07 55.87166 -3.60219 2926 ft 145 kts 56°
2026-04-26 20:07 55.87694 -3.58677 2723 ft 145 kts 56°
2026-04-26 20:07 55.88213 -3.57160 2524 ft 144 kts 57°
2026-04-26 20:07 55.88735 -3.55634 2315 ft 140 kts 57°
2026-04-26 20:08 55.89177 -3.54344 2146 ft 138 kts 57°
2026-04-26 20:08 55.89630 -3.53014 1983 ft 137 kts 57°
2026-04-26 20:08 55.90114 -3.51598 1801 ft 137 kts 57°
2026-04-26 20:08 55.90588 -3.50208 1618 ft 134 kts 57°
2026-04-26 20:09 55.90993 -3.49021 1464 ft 132 kts 57°
2026-04-26 20:09 55.91458 -3.47659 1296 ft 132 kts 57°
2026-04-26 20:09 55.91932 -3.46267 1123 ft 132 kts 57°
2026-04-26 20:09 55.92395 -3.44908 944 ft 131 kts 58°
2026-04-26 20:10 55.92862 -3.43534 770 ft 131 kts 58°
2026-04-26 20:10 55.93312 -3.42213 593 ft 131 kts 57°
2026-04-26 20:10 55.93769 -3.40880 446 ft 129 kts 58°
2026-04-26 20:10 55.94237 -3.39513 258 ft 130 kts 58°
2026-04-26 20:11 55.94680 -3.38190 109 ft 123 kts 58°
2026-04-26 20:11 55.95016 -3.37201 102 ft 62 kts 59°
2026-04-26 20:11 55.95145 -3.36812 102 ft 12 kts 58°
2026-04-26 20:12 55.95249 -3.36486 105 ft 22 kts 68°
2026-04-26 20:12 55.95239 -3.36354 105 ft 9 kts 172°
2026-04-26 20:12 55.95185 -3.36348 105 ft 11 kts 167°
2026-04-26 20:12 55.95118 -3.36341 105 ft 9 kts 219°
2026-04-26 20:13 55.95061 -3.36493 105 ft 20 kts 239°
2026-04-26 20:13 55.94977 -3.36743 103 ft 24 kts 238°
2026-04-26 20:13 55.94879 -3.36812 104 ft 19 kts 157°
2026-04-26 20:13 55.94767 -3.36766 106 ft 14 kts 154°
2026-04-26 20:14 55.94666 -3.36740 108 ft 9 kts 151°
2026-04-26 20:14 55.94658 -3.36662 108 ft 4 kts 85°
2026-04-26 20:14 55.94659 -3.36633 109 ft 0 kts 88°
2026-04-26 20:14 55.94659 -3.36631 109 ft 0 kts 88°